User: anonymous   Login
Location: Unspecified
(0.0000°N, 0.0000°E)
Time: 07:54:34
(UTC+00:00)
Language:

CUBEBUG 2 - Orbit

View from above orbital plane
View from above orbital plane
View from above satellite
View from above satellite

Ground track
Ground track

The orbit data is extracted from the following two-line orbital elements,

1 39440U 13066AA  19077.47549235 +.00000252 +00000-0 +42006-4 0  9994
2 39440 097.6015 081.3637 0080978 025.5997 334.9188 14.75807543285170
Epoch (UTC): 18 March 2019 11:24:42
Eccentricity: 0.0080978
inclination: 97.6015°
perigee height: 586 km
apogee height: 699 km
right ascension of ascending node: 81.3637°
argument of perigee: 25.5997°
revolutions per day: 14.75807543
mean anomaly at epoch: 334.9188°
orbit number at epoch: 28517

The dashed part of the orbit path shows where the satellite is in the earth's shadow,  

DLR